TimeCDT,TemperatureF,Dew PointF,Humidity,Sea Level PressureIn,VisibilityMPH,Wind Direction,Wind SpeedMPH,Gust SpeedMPH,PrecipitationIn,Events,Conditions,WindDirDegrees,DateUTC
12:15 AM,62.6,59.2,89,30.18,10.0,Calm,Calm,-,N/A,,Clear,0,2013-05-15 05:15:00
12:35 AM,61.7,59.0,91,30.18,10.0,Calm,Calm,-,N/A,,Clear,0,2013-05-15 05:35:00
12:55 AM,61.7,59.2,91,30.18,10.0,Calm,Calm,-,N/A,,Clear,0,2013-05-15 05:55:00
1:15 AM,60.8,59.0,94,30.18,7.0,Calm,Calm,-,N/A,,Clear,0,2013-05-15 06:15:00
1:35 AM,60.8,59.0,94,30.18,10.0,Calm,Calm,-,N/A,,Clear,0,2013-05-15 06:35:00
1:55 AM,60.8,58.8,93,30.18,10.0,Calm,Calm,-,N/A,,Clear,0,2013-05-15 06:55:00
2:15 AM,59.9,58.5,95,30.17,10.0,Calm,Calm,-,N/A,,Clear,0,2013-05-15 07:15:00
2:35 AM,60.1,59.0,96,30.18,7.0,Calm,Calm,-,N/A,,Clear,0,2013-05-15 07:35:00
2:55 AM,59.4,58.8,98,30.18,7.0,Calm,Calm,-,N/A,,Clear,0,2013-05-15 07:55:00
3:15 AM,59.0,58.3,97,30.17,7.0,Calm,Calm,-,N/A,,Clear,0,2013-05-15 08:15:00
3:35 AM,59.2,58.5,97,30.17,7.0,Calm,Calm,-,N/A,,Clear,0,2013-05-15 08:35:00
3:55 AM,58.6,58.1,98,30.17,5.0,Calm,Calm,-,N/A,,Clear,0,2013-05-15 08:55:00
4:15 AM,58.8,58.1,97,30.17,7.0,Calm,Calm,-,N/A,,Clear,0,2013-05-15 09:15:00
4:35 AM,58.1,57.6,98,30.17,5.0,Calm,Calm,-,N/A,,Clear,0,2013-05-15 09:35:00
4:55 AM,58.1,57.4,97,30.17,7.0,Calm,Calm,-,N/A,,Clear,0,2013-05-15 09:55:00
5:15 AM,58.1,57.6,98,30.17,5.0,Calm,Calm,-,N/A,,Clear,0,2013-05-15 10:15:00
5:35 AM,57.6,57.2,99,30.17,5.0,Calm,Calm,-,N/A,,Clear,0,2013-05-15 10:35:00
5:55 AM,58.1,57.6,98,30.18,7.0,Calm,Calm,-,N/A,,Clear,0,2013-05-15 10:55:00
6:15 AM,58.5,57.9,98,30.18,5.0,Calm,Calm,-,N/A,,Clear,0,2013-05-15 11:15:00
6:35 AM,58.5,57.4,96,30.18,7.0,Calm,Calm,-,N/A,,Clear,0,2013-05-15 11:35:00
6:55 AM,59.2,58.1,96,30.18,7.0,Calm,Calm,-,N/A,,Clear,0,2013-05-15 11:55:00
7:15 AM,59.9,58.8,96,30.18,5.0,Calm,Calm,-,N/A,,Clear,0,2013-05-15 12:15:00
7:35 AM,62.1,60.6,95,30.18,5.0,Calm,Calm,-,N/A,,Clear,0,2013-05-15 12:35:00
7:55 AM,64.0,61.9,93,30.18,5.0,Calm,Calm,-,N/A,,Clear,0,2013-05-15 12:55:00
8:15 AM,65.3,62.8,92,30.19,7.0,Calm,Calm,-,N/A,,Clear,0,2013-05-15 13:15:00
8:35 AM,67.1,64.0,90,30.19,7.0,Calm,Calm,-,N/A,,Clear,0,2013-05-15 13:35:00
8:55 AM,69.3,65.1,87,30.19,10.0,Calm,Calm,-,N/A,,Clear,0,2013-05-15 13:55:00
9:15 AM,71.1,65.5,82,30.20,10.0,Calm,Calm,-,N/A,,Clear,0,2013-05-15 14:15:00
9:35 AM,72.3,65.5,79,30.19,10.0,SE,3.5,-,N/A,,Clear,130,2013-05-15 14:35:00
9:55 AM,73.6,65.5,76,30.19,10.0,Calm,Calm,-,N/A,,Clear,0,2013-05-15 14:55:00
10:15 AM,73.8,65.5,75,30.19,10.0,Calm,Calm,-,N/A,,Clear,0,2013-05-15 15:15:00
10:35 AM,76.1,62.6,63,30.19,10.0,SSE,4.6,-,N/A,,Clear,150,2013-05-15 15:35:00
10:55 AM,76.3,61.9,61,30.19,10.0,SSE,4.6,-,N/A,,Clear,160,2013-05-15 15:55:00
11:15 AM,77.4,61.9,59,30.18,10.0,SSE,4.6,-,N/A,,Clear,160,2013-05-15 16:15:00
11:35 AM,78.8,60.6,54,30.18,10.0,South,5.8,-,N/A,,Clear,170,2013-05-15 16:35:00
11:55 AM,79.0,61.9,56,30.18,10.0,SSE,4.6,-,N/A,,Clear,160,2013-05-15 16:55:00
12:15 PM,80.1,61.0,52,30.17,10.0,SE,9.2,-,N/A,,Clear,140,2013-05-15 17:15:00
12:35 PM,80.6,61.0,51,30.17,10.0,SSE,5.8,-,N/A,,Clear,160,2013-05-15 17:35:00
12:55 PM,80.8,60.4,50,30.16,10.0,SE,8.1,-,N/A,,Clear,140,2013-05-15 17:55:00
1:15 PM,81.1,58.6,46,30.15,10.0,South,8.1,-,N/A,,Clear,170,2013-05-15 18:15:00
1:35 PM,82.2,59.5,46,30.14,10.0,SE,8.1,-,N/A,,Clear,140,2013-05-15 18:35:00
1:55 PM,82.0,61.0,49,30.13,10.0,SSE,6.9,-,N/A,,Clear,150,2013-05-15 18:55:00
2:15 PM,82.0,61.0,49,30.12,10.0,South,6.9,-,N/A,,Clear,170,2013-05-15 19:15:00
2:35 PM,81.5,60.6,49,30.11,10.0,SE,5.8,-,N/A,,Scattered Clouds,140,2013-05-15 19:35:00
2:55 PM,80.8,61.9,52,30.10,10.0,SSE,8.1,-,N/A,,Scattered Clouds,160,2013-05-15 19:55:00
3:15 PM,80.2,61.0,52,30.10,10.0,SSE,5.8,-,N/A,,Scattered Clouds,160,2013-05-15 20:15:00
3:35 PM,80.6,59.0,48,30.09,10.0,South,6.9,-,N/A,,Clear,190,2013-05-15 20:35:00
3:55 PM,79.7,58.8,49,30.08,10.0,SSE,5.8,-,N/A,,Clear,160,2013-05-15 20:55:00
4:15 PM,80.2,58.3,47,30.07,10.0,SSE,5.8,-,N/A,,Clear,160,2013-05-15 21:15:00
4:35 PM,79.9,58.5,48,30.06,10.0,SSE,5.8,-,N/A,,Clear,150,2013-05-15 21:35:00
4:55 PM,79.3,57.7,47,30.05,10.0,SSE,5.8,-,N/A,,Clear,160,2013-05-15 21:55:00
5:15 PM,78.6,58.3,50,30.04,10.0,SSE,6.9,-,N/A,,Clear,150,2013-05-15 22:15:00
5:35 PM,77.9,57.6,49,30.04,10.0,SSE,5.8,-,N/A,,Clear,150,2013-05-15 22:35:00
5:55 PM,77.5,59.2,53,30.03,10.0,SSE,5.8,-,N/A,,Clear,150,2013-05-15 22:55:00
6:15 PM,76.1,59.5,56,30.03,10.0,SSE,6.9,-,N/A,,Clear,160,2013-05-15 23:15:00
6:35 PM,75.9,59.0,56,30.03,10.0,SSE,5.8,-,N/A,,Clear,160,2013-05-15 23:35:00
6:55 PM,75.4,57.4,53,30.03,10.0,SSE,6.9,-,N/A,,Clear,150,2013-05-15 23:55:00
7:15 PM,75.0,56.7,53,30.02,10.0,SSE,6.9,-,N/A,,Clear,150,2013-05-16 00:15:00
7:35 PM,74.8,57.0,54,30.02,10.0,SSE,4.6,-,N/A,,Clear,150,2013-05-16 00:35:00
7:55 PM,73.8,57.6,57,30.03,10.0,SSE,5.8,-,N/A,,Clear,160,2013-05-16 00:55:00
8:15 PM,72.5,58.6,62,30.04,10.0,South,5.8,-,N/A,,Clear,170,2013-05-16 01:15:00
8:35 PM,72.0,59.2,64,30.04,10.0,South,4.6,-,N/A,,Clear,180,2013-05-16 01:35:00
8:55 PM,72.1,59.2,64,30.03,10.0,SSE,4.6,-,N/A,,Clear,150,2013-05-16 01:55:00
9:15 PM,72.0,59.9,66,30.03,10.0,SE,5.8,-,N/A,,Clear,140,2013-05-16 02:15:00
9:35 PM,72.0,60.1,66,30.03,10.0,SSE,5.8,-,N/A,,Clear,150,2013-05-16 02:35:00
9:55 PM,72.0,61.2,69,30.02,10.0,ESE,3.5,-,N/A,,Clear,120,2013-05-16 02:55:00
10:15 PM,70.7,61.3,72,30.03,10.0,SE,3.5,-,N/A,,Clear,130,2013-05-16 03:15:00
10:35 PM,70.3,61.9,74,30.03,10.0,ESE,3.5,-,N/A,,Clear,120,2013-05-16 03:35:00
10:55 PM,70.0,61.5,74,30.03,10.0,SE,5.8,-,N/A,,Clear,130,2013-05-16 03:55:00
11:15 PM,69.8,61.3,74,30.03,10.0,SE,3.5,-,N/A,,Clear,140,2013-05-16 04:15:00
11:35 PM,69.1,61.7,77,30.04,10.0,South,4.6,-,N/A,,Clear,170,2013-05-16 04:35:00
11:55 PM,68.9,61.9,78,30.03,10.0,SSE,3.5,-,N/A,,Clear,150,2013-05-16 04:55:00